QPF
0.07 0.08 0.06 0.06 0.07 0.08 0.09 0.10 0.12 0.15 0.17 0.18 0.18 0.17 0.15 0.14 0.13 0.11 0.09 0.09 0.09 0.09 0.09 0.09 0.11 0.12 0.11 0.12 0.12 0.11 0.11 0.09 0.10 0.12 0.09 0.08 0.07 0.06 0.05 0.07 0.08 0.07 0.06
0.11 0.12 0.09 0.05 0.04 0.05 0.05 0.06 0.08 0.10 0.08 0.06 0.05 0.05 0.06 0.08 0.10 0.10 0.09 0.08 0.07 0.06 0.06 0.06 0.07 0.08 0.09 0.09 0.08 0.07 0.06 0.07 0.09 0.10 0.11 0.08 0.06 0.04 0.03 0.04 0.04 0.04 0.06
0.10 0.10 0.08 0.05 0.04 0.05 0.04 0.05 0.07 0.06 0.04 0.03 0.03 0.03 0.06 0.08 0.09 0.09 0.07 0.07 0.09 0.08 0.05 0.04 0.03 0.03 0.03 0.03 0.03 0.04 0.04 0.05 0.07 0.09 0.10 0.08 0.05 0.05 0.04 0.03 0.03 0.04 0.05
0.06 0.06 0.04 0.03 0.02 0.02 0.01 0.01 0.02 0.02 0.02 0.01 0.01 0.01 0.01 0.02 0.03 0.04 0.03 0.03 0.04 0.05 0.04 0.03 0.02 0.01 0.01 0.00 0.01 0.01 0.01 0.03 0.04 0.05 0.07 0.08 0.07 0.06 0.05 0.04 0.04 0.05 0.05
0.02 0.02 0.02 0.01 0.01 0.00 0.00 0.01 0.01 0.01 0.01 0.01 0.01 0.01 0.00 0.00 0.01 0.01 0.01 0.01 0.02 0.02 0.02 0.02 0.01 0.01 0.00 0.00 0.00 0.00 0.01 0.01 0.03 0.04 0.06 0.08 0.08 0.07 0.05 0.04 0.04 0.05 0.05
0.01 0.01 0.01 0.01 0.00 0.00 0.00 0.00 0.01 0.01 0.01 0.01 0.01 0.01 0.00 0.00 0.00 0.00 0.00 0.01 0.01 0.01 0.01 0.01 0.01 0.01 0.00 0.00 0.00 0.01 0.01 0.01 0.01 0.01 0.03 0.05 0.07 0.07 0.06 0.04 0.04 0.05 0.05
0.01 0.01 0.01 0.01 0.01 0.00 0.00 0.00 0.00 0.00 0.00 0.00 0.00 0.00 0.00 0.00 0.00 0.00 0.00 0.00 0.00 0.00 0.00 0.01 0.00 0.00 0.00 0.01 0.01 0.01 0.00 0.01 0.01 0.01 0.02 0.02 0.04 0.06 0.06 0.06 0.05 0.04 0.05
0.00 0.00 0.00 0.00 0.00 0.00 0.00 0.00 0.00 0.00 0.00 0.00 0.00 0.00 0.00 0.00 0.00 0.00 0.00 0.00 0.00 0.00 0.00 0.01 0.01 0.01 0.01 0.01 0.01 0.01 0.01 0.01 0.01 0.01 0.01 0.02 0.03 0.05 0.07 0.07 0.07 0.06 0.05
0.00 0.00 0.00 0.00 0.00 0.00 0.00 0.00 0.00 0.00 0.00 0.00 0.00 0.00 0.00 0.00 0.00 0.00 0.00 0.00 0.00 0.00 0.00 0.00 0.00 0.01 0.01 0.01 0.01 0.01 0.01 0.01 0.01 0.01 0.01 0.01 0.02 0.03 0.06 0.08 0.09 0.10 0.09
0.00 0.00 0.00 0.00 0.00 0.00 0.00 0.00 0.00 0.00 0.00 0.00 0.00 0.00 0.00 0.00 0.00 0.00 0.00 0.00 0.00 0.00 0.00 0.00 0.00 0.00 0.00 0.00 0.00 0.01 0.01 0.01 0.01 0.02 0.02 0.01 0.01 0.02 0.05 0.07 0.09 0.10 0.12
0.00 0.00 0.00 0.00 0.00 0.00 0.00 0.00 0.00 0.00 0.00 0.00 0.00 0.00 0.00 0.00 0.00 0.00 0.00 0.00 0.00 0.00 0.00 0.00 0.00 0.00 0.00 0.00 0.00 0.01 0.01 0.01 0.01 0.02 0.02 0.01 0.01 0.01 0.03 0.06 0.08 0.11 0.12
0.00 0.00 0.00 0.00 0.00 0.00 0.00 0.00 0.00 0.00 0.00 0.00 0.00 0.00 0.00 0.00 0.00 0.00 0.00 0.00 0.00 0.00 0.00 0.00 0.00 0.00 0.00 0.00 0.00 0.00 0.00 0.01 0.01 0.02 0.02 0.02 0.02 0.02 0.02 0.05 0.08 0.11 0.13
0.00 0.00 0.00 0.00 0.00 0.00 0.00 0.00 0.00 0.00 0.00 0.00 0.00 0.00 0.00 0.00 0.00 0.00 0.00 0.00 0.00 0.00 0.00 0.00 0.00 0.00 0.00 0.00 0.00 0.00 0.00 0.00 0.01 0.01 0.01 0.02 0.02 0.02 0.03 0.04 0.06 0.11 0.13
0.00 0.00 0.00 0.00 0.00 0.00 0.00 0.00 0.00 0.00 0.00 0.00 0.00 0.00 0.00 0.00 0.00 0.00 0.00 0.00 0.00 0.00 0.00 0.00 0.00 0.00 0.00 0.00 0.00 0.01 0.01 0.01 0.01 0.01 0.02 0.02 0.02 0.01 0.02 0.03 0.04 0.07 0.12
0.00 0.00 0.00 0.00 0.00 0.00 0.00 0.00 0.00 0.00 0.00 0.00 0.00 0.00 0.00 0.00 0.00 0.00 0.00 0.00 0.00 0.00 0.00 0.00 0.00 0.00 0.00 0.00 0.00 0.00 0.01 0.01 0.01 0.01 0.01 0.02 0.02 0.02 0.01 0.01 0.02 0.04 0.08
0.00 0.00 0.00 0.00 0.00 0.00 0.00 0.00 0.00 0.00 0.00 0.00 0.00 0.00 0.00 0.00 0.00 0.00 0.00 0.00 0.00 0.00 0.00 0.00 0.00 0.00 0.00 0.00 0.01 0.01 0.01 0.02 0.02 0.02 0.02 0.02 0.02 0.02 0.02 0.01 0.02 0.03 0.06
0.00 0.00 0.00 0.00 0.00 0.00 0.00 0.00 0.00 0.00 0.00 0.00 0.00 0.00 0.00 0.00 0.00 0.00 0.00 0.00 0.00 0.00 0.00 0.00 0.00 0.00 0.00 0.00 0.01 0.01 0.01 0.02 0.02 0.03 0.03 0.03 0.02 0.02 0.02 0.03 0.03 0.03 0.05
0.00 0.00 0.00 0.00 0.00 0.00 0.00 0.00 0.00 0.00 0.00 0.00 0.00 0.00 0.00 0.00 0.00 0.00 0.00 0.00 0.00 0.00 0.00 0.00 0.00 0.00 0.00 0.00 0.00 0.01 0.01 0.01 0.02 0.02 0.03 0.04 0.03 0.02 0.03 0.03 0.03 0.03 0.04
0.00 0.00 0.00 0.00 0.00 0.00 0.00 0.00 0.00 0.00 0.00 0.00 0.00 0.00 0.00 0.00 0.00 0.00 0.00 0.00 0.00 0.00 0.00 0.00 0.00 0.00 0.00 0.00 0.01 0.01 0.01 0.01 0.01 0.02 0.02 0.03 0.04 0.04 0.04 0.04 0.03 0.04 0.05
0.00 0.00 0.00 0.00 0.00 0.00 0.00 0.00 0.00 0.00 0.00 0.00 0.00 0.00 0.00 0.00 0.00 0.00 0.00 0.00 0.00 0.00 0.00 0.00 0.00 0.00 0.00 0.00 0.01 0.01 0.01 0.02 0.01 0.02 0.02 0.02 0.03 0.04 0.05 0.05 0.04 0.04 0.04
0.00 0.00 0.00 0.00 0.00 0.00 0.00 0.00 0.00 0.00 0.00 0.00 0.00 0.00 0.00 0.00 0.00 0.00 0.00 0.00 0.00 0.00 0.00 0.00 0.01 0.01 0.00 0.00 0.01 0.01 0.02 0.02 0.02 0.02 0.02 0.02 0.02 0.04 0.05 0.05 0.04 0.03 0.04
0.00 0.00 0.00 0.00 0.00 0.00 0.00 0.00 0.00 0.00 0.00 0.00 0.00 0.00 0.00 0.00 0.00 0.00 0.00 0.00 0.00 0.00 0.00 0.00 0.00 0.00 0.00 0.01 0.01 0.01 0.02 0.03 0.03 0.03 0.02 0.02 0.03 0.04 0.05 0.05 0.04 0.04 0.04
0.00 0.00 0.00 0.00 0.00 0.00 0.00 0.00 0.00 0.00 0.00 0.00 0.00 0.00 0.00 0.00 0.00 0.00 0.00 0.00 0.00 0.00 0.01 0.00 0.00 0.00 0.00 0.01 0.01 0.01 0.02 0.03 0.03 0.03 0.03 0.04 0.04 0.05 0.05 0.05 0.05 0.04 0.03
0.00 0.00 0.00 0.00 0.00 0.00 0.00 0.00 0.00 0.00 0.00 0.00 0.00 0.00 0.00 0.00 0.00 0.00 0.00 0.00 0.00 0.01 0.01 0.01 0.01 0.01 0.01 0.01 0.01 0.02 0.02 0.02 0.02 0.03 0.05 0.05 0.05 0.05 0.05 0.04 0.04 0.04 0.03
0.00 0.00 0.00 0.00 0.00 0.00 0.00 0.00 0.00 0.00 0.00 0.00 0.00 0.00 0.00 0.00 0.00 0.00 0.00 0.00 0.00 0.01 0.01 0.01 0.01 0.01 0.01 0.01 0.01 0.01 0.01 0.01 0.02 0.02 0.03 0.04 0.05 0.04 0.04 0.04 0.03 0.02 0.02
0.00 0.00 0.00 0.00 0.00 0.00 0.00 0.00 0.00 0.00 0.00 0.00 0.00 0.00 0.00 0.00 0.00 0.00 0.00 0.00 0.00 0.00 0.01 0.01 0.01 0.01 0.01 0.01 0.01 0.01 0.02 0.02 0.02 0.02 0.02 0.03 0.05 0.05 0.04 0.03 0.03 0.02 0.02
MSLP
1012.14 1011.93 1011.75 1011.57 1011.40 1011.22 1011.07 1010.95 1010.89 1010.91 1010.98 1011.10 1011.25 1011.39 1011.51 1011.58 1011.62 1011.64 1011.66 1011.72 1011.84 1012.03 1012.28 1012.60 1012.93 1013.27 1013.56 1013.79 1013.93 1013.99 1013.98 1013.90 1013.78 1013.63 1013.47 1013.30 1013.15 1013.00 1012.87 1012.77 1012.70 1012.67 1012.70
1012.56 1012.36 1012.15 1011.93 1011.68 1011.42 1011.18 1010.99 1010.89 1010.89 1010.99 1011.15 1011.34 1011.52 1011.65 1011.71 1011.71 1011.67 1011.63 1011.62 1011.67 1011.82 1012.06 1012.37 1012.72 1013.07 1013.39 1013.63 1013.78 1013.85 1013.84 1013.77 1013.65 1013.52 1013.37 1013.22 1013.06 1012.90 1012.73 1012.56 1012.41 1012.28 1012.21
1012.92 1012.76 1012.57 1012.34 1012.05 1011.73 1011.42 1011.18 1011.04 1011.03 1011.14 1011.32 1011.55 1011.76 1011.90 1011.96 1011.93 1011.84 1011.73 1011.65 1011.63 1011.71 1011.89 1012.16 1012.48 1012.81 1013.11 1013.34 1013.50 1013.57 1013.58 1013.53 1013.45 1013.36 1013.25 1013.14 1013.00 1012.84 1012.64 1012.42 1012.19 1011.96 1011.77
1013.23 1013.15 1013.02 1012.81 1012.52 1012.17 1011.82 1011.53 1011.35 1011.32 1011.42 1011.61 1011.86 1012.09 1012.24 1012.30 1012.25 1012.11 1011.94 1011.78 1011.68 1011.67 1011.77 1011.96 1012.21 1012.48 1012.73 1012.94 1013.07 1013.15 1013.18 1013.17 1013.15 1013.12 1013.08 1013.02 1012.93 1012.79 1012.58 1012.31 1012.01 1011.69 1011.40
1013.52 1013.54 1013.49 1013.34 1013.07 1012.72 1012.34 1012.02 1011.80 1011.73 1011.80 1011.98 1012.22 1012.45 1012.61 1012.66 1012.59 1012.42 1012.19 1011.96 1011.77 1011.67 1011.67 1011.76 1011.92 1012.10 1012.28 1012.43 1012.55 1012.62 1012.67 1012.71 1012.75 1012.79 1012.83 1012.85 1012.81 1012.70 1012.50 1012.21 1011.86 1011.47 1011.08
1013.80 1013.93 1013.98 1013.90 1013.68 1013.34 1012.96 1012.60 1012.34 1012.22 1012.25 1012.39 1012.60 1012.81 1012.96 1012.99 1012.90 1012.70 1012.43 1012.14 1011.89 1011.70 1011.59 1011.58 1011.63 1011.72 1011.81 1011.90 1011.97 1012.03 1012.09 1012.17 1012.27 1012.39 1012.51 1012.60 1012.63 1012.57 1012.40 1012.11 1011.73 1011.29 1010.84
1014.10 1014.33 1014.47 1014.47 1014.31 1014.00 1013.61 1013.23 1012.92 1012.74 1012.71 1012.80 1012.96 1013.13 1013.24 1013.25 1013.14 1012.92 1012.63 1012.30 1011.98 1011.72 1011.54 1011.42 1011.37 1011.36 1011.37 1011.39 1011.41 1011.44 1011.51 1011.61 1011.76 1011.94 1012.13 1012.30 1012.40 1012.40 1012.27 1012.01 1011.63 1011.18 1010.69
1014.41 1014.72 1014.95 1015.02 1014.90 1014.62 1014.24 1013.84 1013.49 1013.26 1013.15 1013.17 1013.26 1013.37 1013.43 1013.41 1013.28 1013.05 1012.74 1012.39 1012.05 1011.74 1011.49 1011.31 1011.17 1011.08 1011.01 1010.95 1010.92 1010.92 1010.97 1011.09 1011.26 1011.48 1011.73 1011.96 1012.12 1012.19 1012.11 1011.90 1011.56 1011.12 1010.63
1014.72 1015.08 1015.37 1015.49 1015.42 1015.18 1014.81 1014.40 1014.01 1013.72 1013.55 1013.48 1013.49 1013.53 1013.54 1013.48 1013.33 1013.08 1012.77 1012.42 1012.07 1011.74 1011.46 1011.23 1011.04 1010.88 1010.74 1010.63 1010.54 1010.50 1010.52 1010.62 1010.80 1011.04 1011.32 1011.60 1011.82 1011.94 1011.94 1011.79 1011.50 1011.11 1010.65
1015.01 1015.40 1015.72 1015.87 1015.84 1015.62 1015.27 1014.85 1014.45 1014.11 1013.88 1013.73 1013.66 1013.62 1013.57 1013.46 1013.27 1013.02 1012.71 1012.37 1012.03 1011.71 1011.42 1011.17 1010.95 1010.75 1010.56 1010.39 1010.26 1010.17 1010.16 1010.23 1010.39 1010.63 1010.92 1011.22 1011.49 1011.67 1011.73 1011.66 1011.45 1011.13 1010.73
1015.28 1015.67 1015.98 1016.14 1016.12 1015.93 1015.59 1015.19 1014.78 1014.41 1014.13 1013.92 1013.78 1013.66 1013.53 1013.37 1013.15 1012.88 1012.58 1012.25 1011.93 1011.63 1011.36 1011.11 1010.87 1010.65 1010.43 1010.23 1010.05 1009.92 1009.86 1009.89 1010.02 1010.24 1010.52 1010.83 1011.13 1011.36 1011.49 1011.49 1011.37 1011.14 1010.82
1015.50 1015.87 1016.16 1016.30 1016.28 1016.10 1015.79 1015.40 1015.00 1014.62 1014.31 1014.05 1013.84 1013.65 1013.46 1013.24 1012.98 1012.69 1012.39 1012.07 1011.78 1011.50 1011.25 1011.01 1010.78 1010.55 1010.31 1010.08 1009.86 1009.69 1009.58 1009.57 1009.66 1009.84 1010.11 1010.41 1010.72 1010.99 1011.17 1011.26 1011.23 1011.09 1010.87
1015.69 1016.01 1016.25 1016.36 1016.33 1016.15 1015.86 1015.50 1015.11 1014.74 1014.41 1014.12 1013.86 1013.60 1013.35 1013.07 1012.78 1012.46 1012.15 1011.84 1011.56 1011.31 1011.07 1010.85 1010.63 1010.39 1010.14 1009.88 1009.64 1009.43 1009.28 1009.22 1009.27 1009.42 1009.65 1009.94 1010.26 1010.55 1010.78 1010.93 1010.99 1010.95 1010.82
1015.85 1016.10 1016.28 1016.35 1016.28 1016.10 1015.83 1015.50 1015.14 1014.79 1014.45 1014.13 1013.83 1013.53 1013.22 1012.89 1012.55 1012.21 1011.88 1011.57 1011.29 1011.05 1010.83 1010.61 1010.39 1010.15 1009.89 1009.62 1009.35 1009.10 1008.92 1008.83 1008.84 1008.95 1009.15 1009.43 1009.73 1010.04 1010.31 1010.52 1010.64 1010.69 1010.66
1015.96 1016.15 1016.26 1016.27 1016.18 1016.00 1015.74 1015.43 1015.10 1014.77 1014.44 1014.11 1013.77 1013.42 1013.06 1012.69 1012.31 1011.94 1011.58 1011.27 1010.99 1010.74 1010.52 1010.31 1010.08 1009.83 1009.56 1009.27 1008.98 1008.71 1008.51 1008.38 1008.36 1008.44 1008.62 1008.87 1009.17 1009.48 1009.77 1010.02 1010.20 1010.32 1010.37
1016.03 1016.15 1016.20 1016.16 1016.05 1015.86 1015.61 1015.33 1015.03 1014.71 1014.38 1014.04 1013.68 1013.30 1012.90 1012.48 1012.06 1011.66 1011.29 1010.96 1010.67 1010.41 1010.18 1009.95 1009.72 1009.45 1009.16 1008.86 1008.55 1008.28 1008.05 1007.91 1007.87 1007.93 1008.09 1008.32 1008.61 1008.91 1009.21 1009.47 1009.69 1009.87 1009.99
1016.05 1016.11 1016.11 1016.03 1015.90 1015.71 1015.48 1015.22 1014.93 1014.63 1014.31 1013.95 1013.57 1013.16 1012.72 1012.27 1011.82 1011.40 1011.01 1010.66 1010.36 1010.09 1009.84 1009.59 1009.33 1009.05 1008.75 1008.43 1008.11 1007.83 1007.60 1007.45 1007.40 1007.45 1007.59 1007.81 1008.08 1008.38 1008.67 1008.94 1009.18 1009.39 1009.56
1015.99 1016.02 1015.98 1015.89 1015.75 1015.57 1015.35 1015.11 1014.85 1014.55 1014.22 1013.86 1013.45 1013.01 1012.55 1012.07 1011.60 1011.16 1010.76 1010.40 1010.08 1009.80 1009.53 1009.27 1008.99 1008.68 1008.36 1008.03 1007.71 1007.42 1007.20 1007.05 1007.01 1007.06 1007.19 1007.40 1007.65 1007.93 1008.22 1008.49 1008.73 1008.95 1009.15
1015.86 1015.87 1015.82 1015.73 1015.60 1015.44 1015.24 1015.02 1014.77 1014.47 1014.14 1013.75 1013.33 1012.86 1012.38 1011.88 1011.41 1010.96 1010.56 1010.19 1009.87 1009.58 1009.30 1009.01 1008.71 1008.39 1008.05 1007.71 1007.39 1007.11 1006.89 1006.76 1006.72 1006.77 1006.91 1007.11 1007.35 1007.62 1007.89 1008.14 1008.39 1008.61 1008.82
1015.64 1015.65 1015.62 1015.55 1015.45 1015.31 1015.14 1014.94 1014.69 1014.40 1014.05 1013.64 1013.20 1012.71 1012.21 1011.71 1011.24 1010.80 1010.40 1010.05 1009.73 1009.43 1009.15 1008.85 1008.53 1008.20 1007.85 1007.51 1007.19 1006.91 1006.71 1006.59 1006.56 1006.62 1006.76 1006.95 1007.19 1007.44 1007.69 1007.94 1008.17 1008.40 1008.61
1015.34 1015.37 1015.37 1015.34 1015.27 1015.17 1015.03 1014.85 1014.61 1014.30 1013.94 1013.52 1013.05 1012.56 1012.05 1011.56 1011.09 1010.67 1010.29 1009.96 1009.65 1009.37 1009.08 1008.78 1008.46 1008.12 1007.77 1007.42 1007.11 1006.84 1006.65 1006.55 1006.53 1006.59 1006.73 1006.92 1007.15 1007.39 1007.63 1007.86 1008.09 1008.31 1008.53
1014.99 1015.05 1015.08 1015.09 1015.06 1015.00 1014.89 1014.72 1014.49 1014.18 1013.81 1013.37 1012.89 1012.39 1011.89 1011.40 1010.96 1010.56 1010.22 1009.91 1009.63 1009.37 1009.10 1008.80 1008.49 1008.15 1007.80 1007.46 1007.15 1006.89 1006.71 1006.61 1006.60 1006.66 1006.80 1006.98 1007.19 1007.42 1007.65 1007.88 1008.10 1008.32 1008.54
1014.61 1014.69 1014.76 1014.81 1014.82 1014.79 1014.71 1014.55 1014.32 1014.01 1013.63 1013.19 1012.70 1012.20 1011.71 1011.25 1010.84 1010.48 1010.17 1009.90 1009.65 1009.41 1009.16 1008.89 1008.58 1008.25 1007.91 1007.58 1007.28 1007.03 1006.85 1006.75 1006.73 1006.79 1006.91 1007.08 1007.28 1007.49 1007.71 1007.92 1008.14 1008.36 1008.59
1014.22 1014.33 1014.43 1014.50 1014.54 1014.54 1014.47 1014.33 1014.10 1013.79 1013.41 1012.97 1012.49 1012.00 1011.53 1011.10 1010.72 1010.40 1010.13 1009.90 1009.69 1009.48 1009.26 1009.00 1008.72 1008.40 1008.07 1007.75 1007.45 1007.21 1007.03 1006.92 1006.89 1006.93 1007.03 1007.18 1007.35 1007.54 1007.74 1007.95 1008.16 1008.39 1008.62
1013.86 1013.98 1014.09 1014.18 1014.24 1014.24 1014.19 1014.05 1013.83 1013.53 1013.15 1012.72 1012.26 1011.79 1011.35 1010.95 1010.61 1010.33 1010.10 1009.90 1009.73 1009.55 1009.35 1009.12 1008.85 1008.55 1008.24 1007.92 1007.63 1007.39 1007.20 1007.08 1007.03 1007.05 1007.12 1007.23 1007.37 1007.53 1007.71 1007.90 1008.11 1008.33 1008.56
1013.52 1013.64 1013.75 1013.84 1013.91 1013.92 1013.87 1013.74 1013.53 1013.24 1012.87 1012.46 1012.02 1011.59 1011.18 1010.81 1010.51 1010.26 1010.06 1009.89 1009.74 1009.59 1009.41 1009.20 1008.95 1008.66 1008.36 1008.06 1007.77 1007.52 1007.33 1007.19 1007.12 1007.10 1007.13 1007.20 1007.30 1007.43 1007.58 1007.74 1007.93 1008.14 1008.37
Thickness
5736 5737 5737 5736 5735 5733 5731 5730 5728 5725 5723 5719 5715 5712 5711 5710 5710 5709 5708 5707 5706 5704 5703 5701 5700 5699 5698 5698 5698 5697 5696 5696 5697 5696 5697 5701 5705 5707 5710 5711 5713 5714 5715
5728 5729 5729 5728 5727 5725 5724 5722 5720 5718 5716 5713 5710 5707 5704 5702 5701 5700 5699 5697 5697 5695 5695 5694 5692 5691 5691 5690 5689 5689 5689 5689 5691 5689 5688 5689 5695 5702 5707 5709 5710 5712 5713
5722 5722 5722 5722 5721 5720 5718 5716 5713 5711 5709 5706 5703 5699 5695 5693 5691 5690 5689 5689 5688 5687 5686 5685 5684 5683 5682 5681 5681 5681 5680 5680 5682 5683 5682 5680 5683 5690 5699 5703 5706 5708 5709
5720 5720 5720 5719 5718 5716 5714 5711 5707 5704 5701 5698 5694 5690 5685 5682 5682 5680 5679 5679 5679 5678 5677 5677 5676 5674 5674 5673 5673 5674 5673 5672 5672 5673 5676 5677 5679 5679 5685 5693 5699 5702 5705
5719 5719 5719 5717 5715 5713 5710 5706 5702 5698 5694 5691 5687 5682 5678 5675 5673 5672 5670 5669 5669 5668 5668 5668 5667 5666 5665 5665 5665 5665 5664 5664 5664 5665 5666 5668 5670 5673 5675 5680 5687 5693 5699
5718 5716 5715 5713 5710 5708 5704 5699 5695 5690 5687 5683 5679 5675 5671 5668 5665 5663 5661 5659 5658 5658 5658 5658 5657 5657 5656 5656 5656 5656 5656 5656 5657 5657 5658 5660 5662 5664 5667 5672 5677 5682 5690
5713 5710 5708 5705 5703 5700 5696 5692 5688 5683 5679 5676 5672 5668 5664 5661 5657 5655 5652 5651 5649 5648 5648 5648 5647 5647 5647 5648 5648 5647 5648 5648 5649 5650 5651 5653 5655 5658 5660 5663 5668 5673 5680
5708 5705 5702 5699 5695 5692 5688 5684 5679 5674 5671 5667 5663 5660 5656 5653 5650 5647 5645 5643 5641 5640 5640 5638 5638 5638 5638 5638 5638 5638 5639 5639 5640 5642 5643 5645 5647 5650 5653 5656 5659 5663 5669
5704 5700 5697 5693 5688 5684 5680 5676 5672 5667 5663 5659 5656 5652 5648 5645 5641 5639 5636 5634 5632 5632 5631 5629 5628 5627 5627 5627 5627 5628 5629 5630 5631 5632 5634 5636 5639 5641 5645 5648 5652 5655 5659
5698 5695 5690 5686 5681 5677 5673 5669 5664 5659 5655 5652 5648 5645 5640 5636 5632 5629 5626 5624 5623 5621 5620 5619 5618 5617 5617 5617 5617 5617 5618 5619 5621 5622 5623 5626 5629 5632 5636 5640 5644 5649 5653
5692 5688 5684 5679 5675 5671 5666 5661 5657 5652 5648 5644 5639 5634 5630 5627 5623 5620 5617 5615 5613 5611 5609 5609 5608 5607 5606 5606 5606 5607 5607 5608 5610 5612 5614 5617 5619 5622 5626 5630 5635 5640 5645
5687 5682 5678 5673 5668 5663 5659 5654 5650 5645 5641 5636 5631 5626 5622 5618 5614 5611 5608 5605 5602 5601 5599 5598 5596 5596 5596 5595 5594 5595 5596 5597 5598 5601 5603 5606 5609 5612 5616 5620 5626 5631 5636
5683 5677 5672 5666 5662 5657 5653 5648 5643 5639 5634 5629 5624 5619 5615 5611 5606 5603 5599 5596 5593 5591 5589 5587 5586 5585 5584 5584 5583 5583 5584 5585 5587 5589 5592 5595 5598 5602 5606 5610 5615 5621 5627
5678 5673 5666 5661 5656 5651 5646 5641 5637 5633 5628 5623 5617 5612 5608 5603 5599 5595 5591 5588 5585 5582 5580 5578 5576 5574 5573 5573 5573 5572 5573 5574 5576 5578 5581 5585 5588 5593 5596 5601 5606 5611 5616
5675 5670 5663 5657 5651 5646 5641 5636 5631 5627 5622 5616 5611 5606 5601 5596 5592 5588 5584 5580 5577 5575 5571 5569 5567 5566 5564 5564 5563 5562 5563 5563 5564 5567 5570 5574 5579 5583 5587 5592 5596 5601 5606
5671 5666 5660 5653 5647 5641 5636 5631 5626 5621 5615 5609 5605 5600 5595 5590 5585 5581 5577 5573 5569 5566 5563 5561 5559 5557 5557 5556 5554 5552 5552 5552 5553 5556 5559 5563 5568 5573 5577 5582 5587 5592 5597
5667 5662 5656 5649 5643 5637 5632 5626 5621 5615 5609 5604 5599 5595 5589 5584 5579 5575 5571 5566 5562 5559 5556 5553 5551 5550 5549 5546 5544 5543 5542 5542 5543 5545 5548 5553 5559 5562 5567 5572 5577 5582 5589
5665 5659 5652 5646 5639 5633 5627 5621 5616 5610 5605 5599 5595 5590 5584 5579 5574 5570 5565 5561 5556 5553 5550 5548 5546 5543 5542 5540 5537 5535 5534 5534 5535 5536 5538 5541 5546 5552 5556 5560 5566 5571 5578
5663 5656 5650 5643 5636 5630 5624 5617 5611 5606 5600 5596 5591 5586 5580 5575 5570 5566 5562 5557 5552 5549 5546 5543 5541 5538 5536 5533 5530 5527 5526 5525 5526 5528 5530 5532 5536 5541 5544 5550 5556 5561 5568
5661 5654 5647 5640 5633 5627 5620 5613 5608 5602 5597 5593 5588 5582 5577 5571 5567 5563 5558 5553 5548 5545 5542 5539 5536 5533 5531 5527 5524 5521 5519 5518 5519 5520 5522 5525 5528 5532 5534 5540 5546 5551 5558
5660 5653 5645 5636 5630 5624 5617 5610 5605 5600 5595 5590 5585 5580 5574 5569 5565 5561 5556 5551 5546 5542 5538 5535 5533 5530 5526 5523 5520 5516 5513 5512 5512 5513 5516 5519 5521 5523 5526 5531 5536 5543 5548
5657 5650 5641 5634 5628 5622 5614 5608 5603 5599 5593 5587 5583 5578 5573 5568 5564 5558 5554 5549 5544 5540 5536 5533 5530 5527 5524 5520 5516 5512 5509 5507 5506 5508 5510 5512 5514 5516 5519 5524 5529 5533 5538
5653 5647 5639 5632 5626 5620 5612 5606 5602 5597 5591 5586 5581 5576 5571 5567 5562 5556 5552 5548 5543 5538 5534 5530 5527 5525 5522 5517 5513 5509 5506 5504 5503 5504 5505 5507 5509 5511 5514 5518 5522 5525 5531
5651 5644 5637 5630 5625 5619 5612 5606 5601 5595 5589 5584 5579 5575 5570 5566 5561 5556 5551 5546 5542 5537 5533 5529 5525 5522 5519 5515 5511 5507 5505 5502 5501 5501 5502 5503 5505 5507 5510 5513 5516 5521 5527
5649 5642 5635 5628 5623 5618 5612 5606 5600 5593 5587 5582 5578 5573 5569 5564 5560 5556 5551 5546 5541 5535 5530 5526 5522 5519 5517 5513 5507 5503 5502 5500 5499 5498 5498 5500 5502 5504 5507 5510 5513 5517 5522
5647 5640 5634 5628 5622 5616 5610 5605 5599 5592 5585 5581 5577 5572 5567 5563 5558 5554 5552 5548 5542 5537 5532 5525 5520 5518 5514 5510 5506 5503 5500 5498 5496 5496 5498 5499 5500 5503 5506 5508 5510 5513 5518